Погода в Лопатине

Россия / Самарская область     53°04′40″N   50°13′02″E
темп.,
°C
ветер,
м/с
пор.,
м/с
влажн.,
%
обл.,
%
осадки,
мм/ч
давл.,
гПа
погр.,
м
14 мая, пт
пт1401:00+20юв5144488 0.0 1021341
04:00+17юв415522 0.0 1022286
07:00+19ююв6144858 0.0 1022349
10:00+25ююв711345 0.0 1022554
13:00+28ю81125100 0.0 10211397
16:00+29ю7112936 0.0 10211851
19:00+24ю494458 0.0 1021205
22:00+19ююв410490 0.0 1021162
15 мая, сб
сб1501:00+18ююв413445 0.0 1021183
04:00+17ю4114548 0.0 1021146
07:00+19ююв28475 0.0 1022208
10:00+26ю57325 0.0 1022525
13:00+30ю56225 0.0 10211411
16:00+30ююз57195 0.0 10202272
19:00+26ю34385 0.0 102065
22:00+21ююв34430 0.0 102047
16 мая, вс
вс1601:00+19ююв48460 0.0 1019103
04:00+18ююв410444 0.0 1020134
07:00+21ююв3105111 0.0 1020216
10:00+27ю610355 0.0 1019642
13:00+31ююз710215 0.0 10193314
16:00+31юз68235 0.0 10183659
19:00+27ю36397 0.0 1018107
22:00+22ююв4739100 0.0 101890
17 мая, пн
пн1701:00+23ю6134076 0.0 1018273
04:00+18ю395589 0.0 1019164
07:00+21ю2655100 0.0 1019163
10:00+27ююв333796 0.0 1019423
13:00+31ююв3427100 0.0 10182356
16:00+31ююв3422100 0.0 10173544
19:00+25ссз3541100 0.0 101784
22:00+23ссв2237100 0.0 101811
18 мая, вт
вт1801:00+21ю224077 0.0 101711
04:00+21вюв113958 0.0 101711
07:00+22ююв2450100 0.0 1017101
10:00+27ююв3436100 0.0 1017542
13:00+31ююв3521100 0.0 10162751
16:00+32ююз3418100 0.0 10163688
19:00+27юз2233100 0.0 101611
22:00+23вюв1131100 0.0 101611